TimeCDT,TemperatureF,Dew PointF,Humidity,Sea Level PressureIn,VisibilityMPH,Wind Direction,Wind SpeedMPH,Gust SpeedMPH,PrecipitationIn,Events,Conditions,WindDirDegrees,DateUTC
12:55 AM,77.0,73.4,89,30.04,10.0,Calm,Calm,-,N/A,,Overcast,0,2013-07-31 05:55:00
1:55 AM,77.0,75.2,94,30.03,10.0,Calm,Calm,-,N/A,,Overcast,0,2013-07-31 06:55:00
2:55 AM,77.0,73.4,89,30.02,10.0,Calm,Calm,-,N/A,,Mostly Cloudy,0,2013-07-31 07:55:00
3:15 AM,75.2,73.4,94,30.01,10.0,Calm,Calm,-,N/A,,Mostly Cloudy,0,2013-07-31 08:15:00
3:35 AM,75.2,73.4,94,30.01,10.0,Calm,Calm,-,N/A,,Mostly Cloudy,0,2013-07-31 08:35:00
3:55 AM,75.2,73.4,94,30.00,10.0,Calm,Calm,-,N/A,,Mostly Cloudy,0,2013-07-31 08:55:00
4:15 AM,75.2,73.4,94,30.00,5.0,Calm,Calm,-,N/A,,Overcast,0,2013-07-31 09:15:00
4:35 AM,75.2,73.4,94,30.00,8.0,South,3.5,-,N/A,,Overcast,170,2013-07-31 09:35:00
4:55 AM,75.2,73.4,94,30.01,10.0,Calm,Calm,-,N/A,,Overcast,0,2013-07-31 09:55:00
5:15 AM,75.2,73.4,94,30.01,8.0,Calm,Calm,-,N/A,,Overcast,0,2013-07-31 10:15:00
5:35 AM,75.2,75.2,100,30.00,10.0,SE,3.5,-,N/A,,Overcast,130,2013-07-31 10:35:00
5:55 AM,75.2,75.2,100,30.01,10.0,Calm,Calm,-,N/A,,Overcast,0,2013-07-31 10:55:00
6:55 AM,75.2,75.2,100,30.05,3.0,Variable,4.6,-,N/A,Rain,Light Rain,0,2013-07-31 11:55:00
7:55 AM,75.2,73.4,94,30.05,9.0,Calm,Calm,-,N/A,,Mostly Cloudy,0,2013-07-31 12:55:00
8:55 AM,78.8,75.2,89,30.05,10.0,SSW,4.6,-,N/A,,Mostly Cloudy,200,2013-07-31 13:55:00
9:55 AM,78.8,75.2,89,30.05,10.0,WSW,8.1,-,N/A,,Mostly Cloudy,240,2013-07-31 14:55:00
10:55 AM,82.4,75.2,79,30.03,10.0,SW,10.4,-,N/A,,Mostly Cloudy,230,2013-07-31 15:55:00
11:55 AM,86.0,77.0,74,30.01,10.0,West,9.2,-,N/A,,Scattered Clouds,270,2013-07-31 16:55:00
12:55 PM,87.8,78.8,75,30.00,10.0,West,9.2,-,N/A,,Mostly Cloudy,260,2013-07-31 17:55:00
1:55 PM,89.6,78.8,70,29.99,10.0,WSW,6.9,-,N/A,,Mostly Cloudy,240,2013-07-31 18:55:00
2:55 PM,89.6,78.8,70,29.97,10.0,WSW,5.8,-,N/A,,Mostly Cloudy,240,2013-07-31 19:55:00
3:55 PM,87.8,78.8,75,29.96,10.0,WSW,3.5,-,N/A,,Mostly Cloudy,250,2013-07-31 20:55:00
4:55 PM,82.4,78.8,89,29.95,10.0,North,5.8,-,N/A,,Mostly Cloudy,10,2013-07-31 21:55:00
5:55 PM,82.4,75.2,79,29.93,10.0,WNW,8.1,-,N/A,,Scattered Clouds,290,2013-07-31 22:55:00
6:55 PM,84.2,75.2,74,29.95,10.0,Calm,Calm,-,N/A,,Scattered Clouds,0,2013-07-31 23:55:00
7:55 PM,80.6,77.0,89,29.97,10.0,Calm,Calm,-,N/A,,Scattered Clouds,0,2013-08-01 00:55:00
8:55 PM,77.0,75.2,94,29.97,10.0,Calm,Calm,-,N/A,,Scattered Clouds,0,2013-08-01 01:55:00
9:55 PM,78.8,77.0,94,29.98,9.0,Calm,Calm,-,N/A,,Clear,0,2013-08-01 02:55:00
10:55 PM,75.2,75.2,100,29.99,10.0,Calm,Calm,-,N/A,,Clear,0,2013-08-01 03:55:00
11:55 PM,75.2,75.2,100,30.00,10.0,Calm,Calm,-,N/A,,Clear,0,2013-08-01 04:55:00